Location: Nowy Sacz
(49.6330°N, 20.7170°E)
Time: 03:36:21
(UTC+01:00)

ISS - Visible Passes

Search period start: 25 January 2020 00:00
Search period end: 04 February 2020 00:00
Orbit: 415 x 423 km, 51.6° (Epoch: 25 January)

Date Brightness Start Highest point End Pass type
(mag) Time Alt. Az. Time Alt. Az. Time Alt. Az.
25 Jan -3.5 17:39:32 10° SW 17:42:51 56° SSE 17:44:31 26° E visible
25 Jan -1.0 19:16:19 10° W 19:17:29 20° W 19:17:29 20° W visible
26 Jan -2.9 16:52:13 10° SW 16:55:24 39° SSE 16:58:35 10° E visible
26 Jan -3.6 18:28:44 10° W 18:31:56 68° NW 18:31:56 68° NW visible
27 Jan -3.8 17:41:10 10° WSW 17:44:33 84° NNW 17:46:22 25° ENE visible
27 Jan -1.0 19:18:11 10° WNW 19:19:20 19° WNW 19:19:20 19° WNW visible
28 Jan -3.7 16:53:38 10° WSW 16:57:01 76° SSE 17:00:24 10° ENE visible
28 Jan -3.4 18:30:35 10° W 18:33:44 57° NNW 18:33:44 57° NNW visible
29 Jan -3.6 17:42:57 10° W 17:46:20 62° N 17:48:08 24° ENE visible
29 Jan -1.1 19:19:56 10° WNW 19:21:06 20° WNW 19:21:06 20° WNW visible
30 Jan -3.5 18:32:21 10° WNW 18:35:30 62° NNW 18:35:30 62° NNW visible
31 Jan -3.6 17:44:44 10° WNW 17:48:06 60° N 17:49:55 24° ENE visible
31 Jan -1.1 19:21:37 10° WNW 19:22:53 21° WNW 19:22:53 21° WNW visible
01 Feb -3.8 18:34:01 10° WNW 18:37:20 85° W 18:37:20 85° W visible
02 Feb -3.8 17:46:24 10° WNW 17:49:48 75° NNE 17:51:50 22° E visible
02 Feb -1.1 19:23:21 10° W 19:24:48 21° W 19:24:48 21° W visible
03 Feb -3.1 18:35:39 10° WNW 18:38:56 48° SSW 18:39:23 44° S visible
